| time (UTC) | temp F | wind direction | speed MPH | gust MPH | rain 1hr in | rain 24hr in | rain mn in | humidity % | barometer mb |
| 20260831110922 | 70 | 206 | 0.0 | 0.0 | 0.00 | 0.00 | 0.00 | 92 | 1019.5 |
| 20260831110420 | 70 | 206 | 0.0 | 0.0 | 0.00 | 0.00 | 0.00 | 92 | 1019.4 |
| 20260831105651 | 70 | 206 | 0.0 | 0.0 | 0.00 | 0.00 | 0.00 | 92 | 1019.4 |
| 20260831105158 | 70 | 206 | 0.0 | 0.0 | 0.00 | 0.00 | 0.00 | 92 | 1019.5 |
| 20260831105125 | 70 | 206 | 0.0 | 0.0 | 0.00 | 0.00 | 0.00 | 92 | 1019.3 |
| 20260831104132 | 71 | 206 | 0.0 | 0.0 | 0.00 | 0.00 | 0.00 | 92 | 1019.2 |
| 20260831103627 | 71 | 205 | 0.0 | 0.0 | 0.00 | 0.00 | 0.00 | 92 | 1019.2 |
| 20260831103121 | 71 | 207 | 0.0 | 0.0 | 0.00 | 0.00 | 0.00 | 92 | 1019.1 |
| 20260831102617 | 71 | 207 | 0.0 | 0.0 | 0.00 | 0.00 | 0.00 | 92 | 1019.1 |
| 20260831102108 | 71 | 206 | 0.0 | 0.0 | 0.00 | 0.00 | 0.00 | 92 | 1019.0 |
| 20260831101603 | 71 | 206 | 0.0 | 0.0 | 0.00 | 0.00 | 0.00 | 92 | 1018.9 |
| 20260831101055 | 71 | 206 | 0.0 | 0.0 | 0.00 | 0.00 | 0.00 | 92 | 1018.9 |
| 20260831100553 | 71 | 206 | 0.0 | 0.0 | 0.00 | 0.00 | 0.00 | 92 | 1018.9 |
| 20260831100057 | 71 | 206 | 0.0 | 0.0 | 0.00 | 0.00 | 0.00 | 92 | 1018.9 |
| 20260831095537 | 71 | 206 | 0.0 | 0.0 | 0.00 | 0.00 | 0.00 | 92 | 1018.9 |
| 20260831095034 | 71 | 206 | 0.0 | 0.0 | 0.00 | 0.00 | 0.00 | 92 | 1018.9 |
| 20260831094526 | 71 | 206 | 0.0 | 0.0 | 0.00 | 0.00 | 0.00 | 91 | 1019.0 |
| 20260831094022 | 71 | 206 | 0.0 | 0.0 | 0.00 | 0.00 | 0.00 | 91 | 1019.1 |
| 20260831093736 | 71 | 207 | 0.0 | 0.0 | 0.00 | 0.00 | 0.00 | 91 | 1019.0 |
| 20260831093008 | 71 | 206 | 0.0 | 0.0 | 0.00 | 0.00 | 0.00 | 92 | 1019.0 |
| 20260831092504 | 71 | 206 | 0.0 | 0.0 | 0.00 | 0.00 | 0.00 | 91 | 1018.9 |
| 20260831091956 | 71 | 207 | 0.0 | 0.0 | 0.00 | 0.00 | 0.00 | 91 | 1019.0 |
| 20260831091451 | 71 | 205 | 0.0 | 0.0 | 0.00 | 0.00 | 0.00 | 91 | 1018.9 |
| 20260831090947 | 71 | 206 | 0.0 | 0.0 | 0.00 | 0.00 | 0.00 | 92 | 1018.9 |
| 20260831090437 | 71 | 207 | 0.0 | 0.0 | 0.00 | 0.00 | 0.00 | 91 | 1019.0 |
| 20260831085933 | 71 | 206 | 0.0 | 0.0 | 0.00 | 0.00 | 0.00 | 91 | 1018.9 |
| 20260831085427 | 71 | 220 | 0.0 | 0.0 | 0.00 | 0.00 | 0.00 | 91 | 1018.9 |
| 20260831084922 | 71 | 220 | 0.0 | 0.0 | 0.00 | 0.00 | 0.00 | 91 | 1019.0 |
| 20260831084414 | 71 | 220 | 0.0 | 0.0 | 0.00 | 0.00 | 0.00 | 91 | 1019.0 |
| 20260831083910 | 71 | 220 | 0.0 | 0.0 | 0.00 | 0.00 | 0.00 | 91 | 1018.9 |
| 20260831083626 | 71 | 220 | 0.0 | 0.0 | 0.00 | 0.00 | 0.00 | 91 | 1019.0 |
| 20260831083124 | 71 | 220 | 0.0 | 0.0 | 0.00 | 0.00 | 0.00 | 91 | 1019.0 |
| 20260831082614 | 71 | 220 | 0.0 | 0.0 | 0.00 | 0.00 | 0.00 | 91 | 1019.0 |
| 20260831081843 | 71 | 219 | 0.0 | 0.0 | 0.00 | 0.00 | 0.00 | 91 | 1019.1 |
| 20260831081607 | 71 | 220 | 0.0 | 0.0 | 0.00 | 0.00 | 0.00 | 91 | 1019.2 |
| 20260831081051 | 71 | 220 | 0.0 | 0.0 | 0.00 | 0.00 | 0.00 | 91 | 1019.2 |
| 20260831080328 | 71 | 220 | 0.0 | 0.0 | 0.00 | 0.00 | 0.00 | 91 | 1019.2 |
| 20260831075819 | 71 | 220 | 0.0 | 0.0 | 0.00 | 0.00 | 0.00 | 91 | 1019.3 |
| 20260831075314 | 71 | 220 | 0.0 | 0.0 | 0.00 | 0.00 | 0.00 | 91 | 1019.2 |
| 20260831074807 | 72 | 219 | 0.0 | 0.0 | 0.00 | 0.00 | 0.00 | 91 | 1019.3 |
| 20260831074301 | 72 | 220 | 0.0 | 0.0 | 0.00 | 0.00 | 0.00 | 91 | 1019.2 |
| 20260831073809 | 71 | 220 | 0.0 | 0.0 | 0.00 | 0.00 | 0.00 | 91 | 1019.3 |
| 20260831073250 | 71 | 220 | 0.0 | 0.0 | 0.00 | 0.00 | 0.00 | 91 | 1019.3 |
| 20260831073005 | 72 | 219 | 0.0 | 0.0 | 0.00 | 0.00 | 0.00 | 91 | 1019.3 |
| 20260831072239 | 72 | 220 | 0.0 | 0.0 | 0.00 | 0.00 | 0.00 | 91 | 1019.4 |
| 20260831071733 | 72 | 220 | 0.0 | 0.0 | 0.00 | 0.00 | 0.00 | 91 | 1019.3 |
| 20260831071226 | 72 | 220 | 0.0 | 0.0 | 0.00 | 0.00 | 0.00 | 91 | 1019.3 |
| 20260831070721 | 72 | 220 | 0.0 | 0.0 | 0.00 | 0.00 | 0.00 | 91 | 1019.2 |
| 20260831070213 | 72 | 220 | 0.0 | 0.0 | 0.00 | 0.00 | 0.00 | 91 | 1019.2 |
| 20260831065709 | 72 | 220 | 0.0 | 0.0 | 0.00 | 0.00 | 0.00 | 91 | 1019.3 |
| 20260831065201 | 72 | 220 | 0.0 | 0.0 | 0.00 | 0.00 | 0.00 | 91 | 1019.2 |
| 20260831064656 | 72 | 220 | 0.0 | 0.0 | 0.00 | 0.00 | 0.00 | 91 | 1019.3 |
| 20260831064157 | 72 | 220 | 0.0 | 0.0 | 0.00 | 0.00 | 0.00 | 91 | 1019.2 |
| 20260831063644 | 72 | 220 | 0.0 | 0.0 | 0.00 | 0.00 | 0.00 | 91 | 1019.3 |
| 20260831063359 | 72 | 219 | 0.0 | 0.0 | 0.00 | 0.00 | 0.00 | 91 | 1019.3 |
| 20260831062633 | 72 | 220 | 0.0 | 0.0 | 0.00 | 0.00 | 0.00 | 91 | 1019.4 |
| 20260831062351 | 72 | 220 | 0.0 | 0.0 | 0.00 | 0.00 | 0.00 | 91 | 1019.3 |
| 20260831061619 | 72 | 220 | 0.0 | 1.0 | 0.00 | 0.00 | 0.00 | 91 | 1019.3 |
| 20260831061115 | 72 | 220 | 0.0 | 1.0 | 0.00 | 0.00 | 0.00 | 91 | 1019.2 |
| 20260831060607 | 73 | 220 | 0.0 | 2.0 | 0.00 | 0.00 | 0.00 | 91 | 1019.1 |
| 20260831060107 | 73 | 214 | 0.0 | 2.0 | 0.00 | 0.00 | 0.00 | 91 | 1019.2 |
| 20260831055607 | 73 | 219 | 0.0 | 1.0 | 0.00 | 0.00 | 0.00 | 91 | 1019.3 |
| 20260831055104 | 73 | 219 | 0.0 | 2.0 | 0.00 | 0.00 | 0.00 | 91 | 1019.4 |
| 20260831054601 | 73 | 219 | 1.0 | 2.0 | 0.00 | 0.00 | 0.00 | 91 | 1019.4 |
| 20260831054324 | 73 | 219 | 1.0 | 3.0 | 0.00 | 0.00 | 0.00 | 91 | 1019.4 |
| 20260831053602 | 73 | 219 | 1.0 | 3.0 | 0.00 | 0.00 | 0.00 | 91 | 1019.4 |
| 20260831053343 | 73 | 217 | 0.0 | 2.0 | 0.00 | 0.00 | 0.00 | 91 | 1019.4 |
| 20260831052617 | 73 | 217 | 0.0 | 2.0 | 0.00 | 0.00 | 0.00 | 90 | 1019.3 |
| 20260831052113 | 73 | 218 | 0.0 | 0.0 | 0.00 | 0.00 | 0.00 | 90 | 1019.3 |
| 20260831051559 | 73 | 219 | 0.0 | 0.0 | 0.00 | 0.00 | 0.00 | 90 | 1019.3 |
| 20260831051056 | 73 | 219 | 0.0 | 1.0 | 0.00 | 0.00 | 0.00 | 90 | 1019.4 |
| 20260831050556 | 73 | 219 | 0.0 | 2.0 | 0.00 | 0.00 | 0.00 | 90 | 1019.5 |
| 20260831050106 | 73 | 218 | 1.0 | 2.0 | 0.00 | 0.00 | 0.00 | 90 | 1019.6 |
| 20260831045821 | 73 | 215 | 0.0 | 2.0 | 0.00 | 0.00 | 0.00 | 90 | 1019.6 |
| 20260831045056 | 73 | 216 | 0.0 | 2.0 | 0.00 | 0.00 | 0.00 | 90 | 1019.6 |
| 20260831044557 | 73 | 215 | 0.0 | 2.0 | 0.00 | 0.00 | 0.00 | 90 | 1019.6 |
| 20260831044056 | 73 | 215 | 1.0 | 3.0 | 0.00 | 0.00 | 0.00 | 90 | 1019.6 |
| 20260831043818 | 73 | 217 | 0.0 | 3.0 | 0.00 | 0.00 | 0.00 | 90 | 1019.6 |
| 20260831043316 | 73 | 203 | 0.0 | 0.0 | 0.00 | 0.00 | 0.00 | 90 | 1019.6 |
| 20260831042819 | 73 | 124 | 0.0 | 0.0 | 0.00 | 0.00 | 0.00 | 90 | 1019.6 |
| 20260831042054 | 73 | 124 | 0.0 | 0.0 | 0.00 | 0.00 | 0.00 | 90 | 1019.7 |
| 20260831041554 | 73 | 124 | 0.0 | 0.0 | 0.00 | 0.00 | 0.00 | 90 | 1019.6 |
| 20260831041312 | 73 | 124 | 0.0 | 0.0 | 0.00 | 0.00 | 0.00 | 90 | 1019.6 |
| 20260831040554 | 74 | 124 | 0.0 | 0.0 | 0.00 | 0.00 | 0.00 | 90 | 1019.6 |
| 20260831040328 | 74 | 124 | 0.0 | 0.0 | 0.00 | 0.00 | 0.00 | 90 | 1019.7 |
| 20260831035548 | 74 | 124 | 0.0 | 0.0 | 0.00 | 0.00 | 0.00 | 90 | 1019.7 |
| 20260831035042 | 74 | 124 | 0.0 | 0.0 | 0.00 | 0.00 | 0.00 | 90 | 1019.6 |
| 20260831034542 | 74 | 124 | 1.0 | 2.0 | 0.00 | 0.00 | 0.00 | 90 | 1019.9 |
| 20260831034044 | 74 | 124 | 1.0 | 2.0 | 0.00 | 0.00 | 0.00 | 90 | 1020.0 |
| 20260831033542 | 74 | 123 | 0.0 | 1.0 | 0.00 | 0.00 | 0.00 | 89 | 1020.0 |
| 20260831033043 | 74 | 123 | 0.0 | 1.0 | 0.00 | 0.00 | 0.00 | 89 | 1020.0 |
| 20260831032542 | 74 | 122 | 0.0 | 1.0 | 0.00 | 0.00 | 0.00 | 89 | 1019.8 |
| 20260831032043 | 74 | 124 | 0.0 | 1.0 | 0.00 | 0.00 | 0.00 | 89 | 1019.8 |
| 20260831031752 | 74 | 123 | 0.0 | 1.0 | 0.00 | 0.00 | 0.00 | 89 | 1020.0 |
| 20260831031030 | 74 | 123 | 0.0 | 1.0 | 0.00 | 0.00 | 0.00 | 89 | 1019.9 |
| 20260831030525 | 74 | 123 | 0.0 | 1.0 | 0.00 | 0.00 | 0.00 | 89 | 1019.9 |
| 20260831030019 | 74 | 124 | 0.0 | 1.0 | 0.00 | 0.00 | 0.00 | 89 | 1019.7 |
| 20260831025511 | 74 | 123 | 1.0 | 2.0 | 0.00 | 0.00 | 0.00 | 89 | 1019.6 |
| 20260831025006 | 74 | 124 | 1.0 | 2.0 | 0.00 | 0.00 | 0.00 | 88 | 1019.8 |
| 20260831024501 | 75 | 123 | 1.0 | 2.0 | 0.00 | 0.00 | 0.00 | 88 | 1019.9 |
| 20260831024001 | 75 | 123 | 0.0 | 1.0 | 0.00 | 0.00 | 0.00 | 88 | 1020.0 |
| 20260831023459 | 75 | 123 | 0.0 | 0.0 | 0.00 | 0.00 | 0.00 | 88 | 1019.8 |
| 20260831023221 | 75 | 122 | 0.0 | 0.0 | 0.00 | 0.00 | 0.00 | 87 | 1020.0 |
| 20260831022501 | 75 | 123 | 0.0 | 0.0 | 0.00 | 0.00 | 0.00 | 87 | 1020.0 |
| 20260831021956 | 76 | 123 | 0.0 | 0.0 | 0.00 | 0.00 | 0.00 | 87 | 1020.0 |
| 20260831021453 | 76 | 122 | 0.0 | 0.0 | 0.00 | 0.00 | 0.00 | 87 | 1020.0 |
| 20260831020953 | 76 | 123 | 0.0 | 0.0 | 0.00 | 0.00 | 0.00 | 87 | 1020.0 |
| 20260831020452 | 76 | 123 | 0.0 | 0.0 | 0.00 | 0.00 | 0.00 | 87 | 1020.0 |
| 20260831020210 | 76 | 123 | 0.0 | 1.0 | 0.00 | 0.00 | 0.00 | 87 | 1019.9 |
| 20260831015452 | 76 | 124 | 0.0 | 1.0 | 0.00 | 0.00 | 0.00 | 87 | 1020.0 |
| 20260831014949 | 76 | 123 | 0.0 | 1.0 | 0.00 | 0.00 | 0.00 | 87 | 1020.1 |
| 20260831014938 | 77 | 124 | 0.0 | 1.0 | 0.00 | 0.00 | 0.00 | 87 | 1020.1 |
| 20260831013950 | 77 | 123 | 0.0 | 1.0 | 0.00 | 0.00 | 0.00 | 86 | 1020.2 |
| 20260831013450 | 77 | 123 | 0.0 | 1.0 | 0.00 | 0.00 | 0.00 | 86 | 1020.2 |
| 20260831012949 | 77 | 124 | 0.0 | 1.0 | 0.00 | 0.00 | 0.00 | 86 | 1020.4 |
| 20260831012453 | 77 | 123 | 0.0 | 1.0 | 0.00 | 0.00 | 0.00 | 86 | 1020.4 |
| 20260831011949 | 78 | 123 | 1.0 | 1.0 | 0.00 | 0.00 | 0.00 | 86 | 1020.5 |
| 20260831011711 | 78 | 124 | 1.0 | 2.0 | 0.00 | 0.00 | 0.00 | 85 | 1020.5 |
| 20260831010945 | 78 | 124 | 1.0 | 2.0 | 0.00 | 0.00 | 0.00 | 85 | 1020.5 |
| 20260831010447 | 78 | 123 | 1.0 | 2.0 | 0.00 | 0.00 | 0.00 | 85 | 1020.3 |
| 20260831010205 | 78 | 124 | 1.0 | 2.0 | 0.00 | 0.00 | 0.00 | 85 | 1020.2 |
| 20260831005445 | 78 | 124 | 1.0 | 3.0 | 0.00 | 0.00 | 0.00 | 85 | 1020.1 |
| 20260831004946 | 78 | 127 | 1.0 | 3.0 | 0.00 | 0.00 | 0.00 | 85 | 1020.0 |
| 20260831004443 | 78 | 132 | 1.0 | 3.0 | 0.00 | 0.00 | 0.00 | 85 | 1019.9 |
| 20260831003939 | 78 | 62 | 0.0 | 2.0 | 0.00 | 0.00 | 0.00 | 84 | 1020.0 |
| 20260831003441 | 78 | 143 | 0.0 | 2.0 | 0.00 | 0.00 | 0.00 | 84 | 1019.9 |
| 20260831002938 | 78 | 143 | 1.0 | 3.0 | 0.00 | 0.00 | 0.00 | 84 | 1019.8 |
| 20260831002439 | 79 | 142 | 1.0 | 3.0 | 0.00 | 0.00 | 0.00 | 84 | 1019.7 |
| 20260831001937 | 79 | 143 | 1.0 | 2.0 | 0.00 | 0.00 | 0.00 | 83 | 1019.6 |
| 20260831001436 | 79 | 143 | 1.0 | 2.0 | 0.00 | 0.00 | 0.00 | 83 | 1019.6 |
| 20260831000935 | 79 | 142 | 0.0 | 2.0 | 0.00 | 0.00 | 0.00 | 82 | 1019.6 |
| 20260831000433 | 80 | 144 | 0.0 | 2.0 | 0.00 | 0.00 | 0.00 | 81 | 1019.5 |
| 20260830235935 | 80 | 144 | 0.0 | 1.0 | 0.00 | 0.00 | 0.00 | 81 | 1019.6 |
| 20260830235436 | 80 | 144 | 0.0 | 1.0 | 0.00 | 0.00 | 0.00 | 81 | 1019.6 |
| 20260830235156 | 81 | 144 | 0.0 | 1.0 | 0.00 | 0.00 | 0.00 | 80 | 1019.6 |
| 20260830234434 | 81 | 144 | 0.0 | 1.0 | 0.00 | 0.00 | 0.00 | 80 | 1019.5 |
| 20260830233933 | 82 | 144 | 0.0 | 1.0 | 0.00 | 0.00 | 0.00 | 79 | 1019.5 |
| 20260830233433 | 82 | 144 | 0.0 | 1.0 | 0.00 | 0.00 | 0.00 | 78 | 1019.5 |
| 20260830232934 | 83 | 144 | 0.0 | 1.0 | 0.00 | 0.00 | 0.00 | 78 | 1019.4 |
| 20260830232436 | 83 | 144 | 0.0 | 1.0 | 0.00 | 0.00 | 0.00 | 78 | 1019.5 |
| 20260830231935 | 84 | 144 | 0.0 | 1.0 | 0.00 | 0.00 | 0.00 | 79 | 1019.6 |
| 20260830231435 | 84 | 144 | 0.0 | 2.0 | 0.00 | 0.00 | 0.00 | 79 | 1019.5 |
| 20260830230934 | 84 | 144 | 0.0 | 2.0 | 0.00 | 0.00 | 0.00 | 78 | 1019.5 |
| 20260830230656 | 84 | 130 | 0.0 | 0.0 | 0.00 | 0.00 | 0.00 | 78 | 1019.4 |
| 20260830230413 | 85 | 128 | 0.0 | 0.0 | 0.00 | 0.00 | 0.00 | 78 | 1019.4 |
| 20260830225435 | 85 | 128 | 0.0 | 1.0 | 0.00 | 0.00 | 0.00 | 78 | 1019.5 |
| 20260830224932 | 85 | 128 | 0.0 | 2.0 | 0.00 | 0.00 | 0.00 | 77 | 1019.5 |
| 20260830224432 | 85 | 98 | 1.0 | 4.0 | 0.00 | 0.00 | 0.00 | 78 | 1019.6 |
| 20260830223931 | 85 | 93 | 1.0 | 4.0 | 0.00 | 0.00 | 0.00 | 78 | 1019.6 |
| 20260830223431 | 85 | 93 | 1.0 | 4.0 | 0.00 | 0.00 | 0.00 | 77 | 1019.5 |
| 20260830222932 | 85 | 95 | 1.0 | 3.0 | 0.00 | 0.00 | 0.00 | 77 | 1019.5 |
| 20260830222425 | 85 | 92 | 2.0 | 4.0 | 0.00 | 0.00 | 0.00 | 76 | 1019.7 |
| 20260830221919 | 85 | 104 | 2.0 | 4.0 | 0.00 | 0.00 | 0.00 | 76 | 1019.6 |
| 20260830221413 | 86 | 70 | 2.0 | 5.0 | 0.00 | 0.00 | 0.00 | 76 | 1019.7 |
| 20260830220908 | 86 | 86 | 4.0 | 9.0 | 0.00 | 0.00 | 0.00 | 76 | 1019.6 |
| 20260830220401 | 86 | 123 | 3.0 | 9.0 | 0.00 | 0.00 | 0.00 | 75 | 1019.5 |
| 20260830215854 | 86 | 124 | 3.0 | 9.0 | 0.00 | 0.00 | 0.00 | 75 | 1019.4 |
| 20260830215350 | 86 | 57 | 3.0 | 9.0 | 0.00 | 0.00 | 0.00 | 75 | 1019.3 |
| 20260830215104 | 86 | 118 | 2.0 | 5.0 | 0.00 | 0.00 | 0.00 | 75 | 1019.3 |
| 20260830214338 | 86 | 72 | 2.0 | 4.0 | 0.00 | 0.00 | 0.00 | 75 | 1019.5 |
| 20260830214101 | 87 | 81 | 2.0 | 4.0 | 0.00 | 0.00 | 0.00 | 74 | 1019.4 |
| 20260830213325 | 87 | 130 | 2.0 | 4.0 | 0.00 | 0.00 | 0.00 | 75 | 1019.2 |
| 20260830212820 | 87 | 92 | 1.0 | 4.0 | 0.00 | 0.00 | 0.00 | 73 | 1019.3 |
| 20260830212313 | 87 | 45 | 1.0 | 6.0 | 0.00 | 0.00 | 0.00 | 73 | 1019.2 |
| 20260830212025 | 87 | 177 | 1.0 | 6.0 | 0.00 | 0.00 | 0.00 | 72 | 1019.2 |
| 20260830211301 | 88 | 157 | 0.0 | 4.0 | 0.00 | 0.00 | 0.00 | 72 | 1019.3 |
| 20260830210755 | 87 | 158 | 1.0 | 4.0 | 0.00 | 0.00 | 0.00 | 73 | 1019.3 |
| 20260830210249 | 87 | 143 | 1.0 | 3.0 | 0.00 | 0.00 | 0.00 | 70 | 1019.3 |
| 20260830210003 | 87 | 130 | 0.0 | 4.0 | 0.00 | 0.00 | 0.00 | 69 | 1019.3 |
| 20260830205238 | 88 | 130 | 1.0 | 4.0 | 0.00 | 0.00 | 0.00 | 70 | 1019.3 |
| 20260830204732 | 88 | 121 | 2.0 | 5.0 | 0.00 | 0.00 | 0.00 | 70 | 1019.3 |
| 20260830204711 | 88 | 120 | 2.0 | 5.0 | 0.00 | 0.00 | 0.00 | 68 | 1019.3 |
| 20260830203720 | 88 | 177 | 1.0 | 3.0 | 0.00 | 0.00 | 0.00 | 69 | 1019.2 |
| 20260830203213 | 88 | 224 | 1.0 | 4.0 | 0.00 | 0.00 | 0.00 | 68 | 1019.3 |
| 20260830202707 | 89 | 255 | 1.0 | 4.0 | 0.00 | 0.00 | 0.00 | 70 | 1019.3 |
| 20260830202432 | 88 | 217 | 2.0 | 4.0 | 0.00 | 0.00 | 0.00 | 68 | 1019.4 |
| 20260830201654 | 88 | 191 | 2.0 | 5.0 | 0.00 | 0.00 | 0.00 | 68 | 1019.5 |
| 20260830201149 | 88 | 174 | 3.0 | 6.0 | 0.00 | 0.00 | 0.00 | 68 | 1019.5 |
| 20260830200644 | 88 | 230 | 2.0 | 6.0 | 0.00 | 0.00 | 0.00 | 69 | 1019.5 |
| 20260830200137 | 88 | 203 | 2.0 | 8.0 | 0.00 | 0.00 | 0.00 | 69 | 1019.6 |
| 20260830195632 | 88 | 135 | 2.0 | 8.0 | 0.00 | 0.00 | 0.00 | 66 | 1019.8 |
| 20260830195345 | 89 | 105 | 2.0 | 4.0 | 0.00 | 0.00 | 0.00 | 67 | 1019.9 |
| 20260830194619 | 89 | 182 | 1.0 | 4.0 | 0.00 | 0.00 | 0.00 | 68 | 1019.9 |
| 20260830194113 | 88 | 162 | 2.0 | 4.0 | 0.00 | 0.00 | 0.00 | 67 | 1019.9 |
| 20260830193607 | 88 | 151 | 2.0 | 4.0 | 0.00 | 0.00 | 0.00 | 67 | 1020.1 |
| 20260830193100 | 88 | 138 | 1.0 | 3.0 | 0.00 | 0.00 | 0.00 | 66 | 1020.1 |
| 20260830192822 | 89 | 198 | 1.0 | 5.0 | 0.00 | 0.00 | 0.00 | 67 | 1020.2 |
| 20260830192050 | 89 | 198 | 2.0 | 5.0 | 0.00 | 0.00 | 0.00 | 69 | 1020.3 |
| 20260830191543 | 88 | 251 | 2.0 | 6.0 | 0.00 | 0.00 | 0.00 | 68 | 1020.3 |
| 20260830191037 | 89 | 44 | 2.0 | 6.0 | 0.00 | 0.00 | 0.00 | 65 | 1020.3 |
| 20260830190530 | 89 | 61 | 2.0 | 6.0 | 0.00 | 0.00 | 0.00 | 66 | 1020.4 |
| 20260830190027 | 89 | 273 | 2.0 | 6.0 | 0.00 | 0.00 | 0.00 | 67 | 1020.6 |
| 20260830185519 | 89 | 183 | 2.0 | 8.0 | 0.00 | 0.00 | 0.00 | 67 | 1020.6 |
| 20260830185014 | 89 | 199 | 2.0 | 8.0 | 0.00 | 0.00 | 0.00 | 68 | 1020.6 |
| 20260830184730 | 89 | 189 | 2.0 | 6.0 | 0.00 | 0.00 | 0.00 | 66 | 1020.6 |
| 20260830184002 | 89 | 232 | 2.0 | 6.0 | 0.00 | 0.00 | 0.00 | 67 | 1020.8 |
| 20260830183457 | 89 | 239 | 2.0 | 5.0 | 0.00 | 0.00 | 0.00 | 68 | 1020.8 |
| 20260830182950 | 88 | 292 | 1.0 | 4.0 | 0.00 | 0.00 | 0.00 | 67 | 1020.8 |
| 20260830182442 | 88 | 243 | 1.0 | 3.0 | 0.00 | 0.00 | 0.00 | 68 | 1020.8 |
| 20260830181937 | 89 | 242 | 1.0 | 3.0 | 0.00 | 0.00 | 0.00 | 66 | 1020.9 |
| 20260830181659 | 89 | 252 | 2.0 | 4.0 | 0.00 | 0.00 | 0.00 | 67 | 1021.0 |
| 20260830180924 | 89 | 252 | 2.0 | 4.0 | 0.00 | 0.00 | 0.00 | 66 | 1021.0 |
| 20260830180419 | 89 | 242 | 2.0 | 3.0 | 0.00 | 0.00 | 0.00 | 72 | 1021.1 |
| 20260830180133 | 89 | 190 | 2.0 | 5.0 | 0.00 | 0.00 | 0.00 | 71 | 1021.1 |
| 20260830175408 | 88 | 285 | 3.0 | 8.0 | 0.00 | 0.00 | 0.00 | 68 | 1021.1 |
| 20260830174900 | 88 | 267 | 3.0 | 8.0 | 0.00 | 0.00 | 0.00 | 68 | 1021.1 |
| 20260830174354 | 88 | 243 | 2.0 | 6.0 | 0.00 | 0.00 | 0.00 | 69 | 1021.1 |
| 20260830174106 | 88 | 169 | 2.0 | 6.0 | 0.00 | 0.00 | 0.00 | 71 | 1021.1 |
| 20260830173344 | 88 | 288 | 3.0 | 9.0 | 0.00 | 0.00 | 0.00 | 67 | 1021.2 |
| 20260830172839 | 88 | 247 | 2.0 | 9.0 | 0.00 | 0.00 | 0.00 | 70 | 1021.2 |
| 20260830172331 | 88 | 204 | 2.0 | 4.0 | 0.00 | 0.00 | 0.00 | 69 | 1021.3 |
| 20260830171825 | 88 | 242 | 2.0 | 6.0 | 0.00 | 0.00 | 0.00 | 72 | 1021.5 |
| 20260830171552 | 88 | 192 | 2.0 | 6.0 | 0.00 | 0.00 | 0.00 | 69 | 1021.4 |
| 20260830170819 | 87 | 288 | 1.0 | 3.0 | 0.00 | 0.00 | 0.00 | 69 | 1021.3 |
| 20260830170319 | 87 | 72 | 1.0 | 6.0 | 0.00 | 0.00 | 0.00 | 68 | 1021.3 |
| 20260830165815 | 87 | 73 | 2.0 | 6.0 | 0.00 | 0.00 | 0.00 | 70 | 1021.3 |
| 20260830165315 | 87 | 129 | 1.0 | 5.0 | 0.00 | 0.00 | 0.00 | 72 | 1021.3 |
| 20260830164817 | 87 | 268 | 2.0 | 5.0 | 0.00 | 0.00 | 0.00 | 71 | 1021.4 |
| 20260830164310 | 87 | 149 | 2.0 | 5.0 | 0.00 | 0.00 | 0.00 | 71 | 1021.6 |
| 20260830163810 | 87 | 172 | 2.0 | 5.0 | 0.00 | 0.00 | 0.00 | 70 | 1021.6 |
| 20260830163302 | 87 | 216 | 1.0 | 4.0 | 0.00 | 0.00 | 0.00 | 71 | 1021.6 |
| 20260830162804 | 87 | 226 | 1.0 | 3.0 | 0.00 | 0.00 | 0.00 | 72 | 1021.7 |
| 20260830162315 | 87 | 247 | 1.0 | 4.0 | 0.00 | 0.00 | 0.00 | 73 | 1021.9 |
| 20260830161804 | 86 | 247 | 2.0 | 6.0 | 0.00 | 0.00 | 0.00 | 73 | 1021.9 |
| 20260830161524 | 86 | 260 | 3.0 | 7.0 | 0.00 | 0.00 | 0.00 | 71 | 1021.8 |
| 20260830160803 | 86 | 265 | 2.0 | 7.0 | 0.00 | 0.00 | 0.00 | 71 | 1021.9 |
| 20260830160259 | 86 | 295 | 2.0 | 7.0 | 0.00 | 0.00 | 0.00 | 71 | 1021.9 |
| 20260830155800 | 86 | 14 | 2.0 | 7.0 | 0.00 | 0.00 | 0.00 | 71 | 1022.0 |
| 20260830155259 | 85 | 224 | 2.0 | 6.0 | 0.00 | 0.00 | 0.00 | 71 | 1022.1 |
| 20260830154800 | 86 | 184 | 3.0 | 9.0 | 0.00 | 0.00 | 0.00 | 70 | 1022.2 |
| 20260830154520 | 86 | 151 | 2.0 | 9.0 | 0.00 | 0.00 | 0.00 | 72 | 1022.3 |
| 20260830153756 | 86 | 253 | 1.0 | 4.0 | 0.00 | 0.00 | 0.00 | 73 | 1022.3 |
| 20260830153230 | 86 | 232 | 2.0 | 5.0 | 0.00 | 0.00 | 0.00 | 73 | 1022.5 |
| 20260830152743 | 85 | 209 | 2.0 | 5.0 | 0.00 | 0.00 | 0.00 | 72 | 1022.5 |
| 20260830152445 | 85 | 265 | 1.0 | 3.0 | 0.00 | 0.00 | 0.00 | 72 | 1022.6 |
| 20260830151729 | 85 | 209 | 2.0 | 6.0 | 0.00 | 0.00 | 0.00 | 72 | 1022.7 |
| 20260830151228 | 85 | 191 | 2.0 | 6.0 | 0.00 | 0.00 | 0.00 | 73 | 1022.7 |
| 20260830150728 | 85 | 265 | 2.0 | 6.0 | 0.00 | 0.00 | 0.00 | 73 | 1022.7 |
| 20260830150229 | 85 | 204 | 2.0 | 5.0 | 0.00 | 0.00 | 0.00 | 74 | 1022.7 |
| 20260830145731 | 85 | 119 | 2.0 | 5.0 | 0.00 | 0.00 | 0.00 | 72 | 1022.7 |
| 20260830145229 | 85 | 33 | 2.0 | 5.0 | 0.00 | 0.00 | 0.00 | 73 | 1022.8 |
| 20260830144731 | 84 | 186 | 2.0 | 5.0 | 0.00 | 0.00 | 0.00 | 72 | 1022.9 |
| 20260830144229 | 84 | 315 | 2.0 | 5.0 | 0.00 | 0.00 | 0.00 | 74 | 1022.8 |
| 20260830143727 | 83 | 218 | 1.0 | 5.0 | 0.00 | 0.00 | 0.00 | 76 | 1022.8 |
| 20260830143224 | 82 | 199 | 1.0 | 3.0 | 0.00 | 0.00 | 0.00 | 76 | 1022.9 |
| 20260830142724 | 82 | 122 | 1.0 | 4.0 | 0.00 | 0.00 | 0.00 | 76 | 1023.0 |
| 20260830142222 | 82 | 109 | 1.0 | 4.0 | 0.00 | 0.00 | 0.00 | 75 | 1023.0 |
| 20260830141722 | 82 | 118 | 1.0 | 4.0 | 0.00 | 0.00 | 0.00 | 74 | 1023.0 |
| 20260830141459 | 82 | 127 | 2.0 | 4.0 | 0.00 | 0.00 | 0.00 | 76 | 1022.9 |
| 20260830140723 | 82 | 49 | 1.0 | 5.0 | 0.00 | 0.00 | 0.00 | 76 | 1022.9 |
| 20260830140223 | 81 | 99 | 1.0 | 5.0 | 0.00 | 0.00 | 0.00 | 78 | 1022.8 |
| 20260830135722 | 81 | 194 | 1.0 | 3.0 | 0.00 | 0.00 | 0.00 | 79 | 1022.9 |
| 20260830135224 | 81 | 78 | 1.0 | 4.0 | 0.00 | 0.00 | 0.00 | 78 | 1022.9 |
| 20260830134724 | 81 | 66 | 2.0 | 7.0 | 0.00 | 0.00 | 0.00 | 79 | 1022.9 |
| 20260830134224 | 81 | 95 | 1.0 | 7.0 | 0.00 | 0.00 | 0.00 | 80 | 1022.9 |
| 20260830133724 | 80 | 128 | 1.0 | 5.0 | 0.00 | 0.00 | 0.00 | 81 | 1022.9 |
| 20260830133223 | 80 | 119 | 2.0 | 6.0 | 0.00 | 0.00 | 0.00 | 82 | 1023.0 |
| 20260830132938 | 79 | 51 | 2.0 | 6.0 | 0.00 | 0.00 | 0.00 | 83 | 1023.0 |
| 20260830132224 | 79 | 65 | 2.0 | 5.0 | 0.00 | 0.00 | 0.00 | 85 | 1023.1 |
| 20260830131722 | 79 | 47 | 2.0 | 5.0 | 0.00 | 0.00 | 0.00 | 86 | 1023.2 |
| 20260830131445 | 78 | 41 | 2.0 | 5.0 | 0.00 | 0.00 | 0.00 | 88 | 1023.0 |
| 20260830130722 | 78 | 45 | 2.0 | 5.0 | 0.00 | 0.00 | 0.00 | 89 | 1023.1 |
| 20260830130217 | 77 | 57 | 2.0 | 5.0 | 0.00 | 0.00 | 0.00 | 90 | 1023.2 |
| 20260830125710 | 77 | 111 | 2.0 | 5.0 | 0.00 | 0.00 | 0.00 | 91 | 1023.2 |
| 20260830125429 | 76 | 119 | 1.0 | 4.0 | 0.00 | 0.00 | 0.00 | 92 | 1023.1 |
| 20260830124658 | 76 | 176 | 1.0 | 3.0 | 0.00 | 0.00 | 0.00 | 93 | 1023.2 |
| 20260830124634 | 76 | 177 | 0.0 | 2.0 | 0.00 | 0.00 | 0.00 | 93 | 1023.1 |
| 20260830123914 | 75 | 176 | 0.0 | 2.0 | 0.00 | 0.00 | 0.00 | 93 | 1023.1 |
| 20260830123142 | 74 | 177 | 0.0 | 2.0 | 0.00 | 0.00 | 0.00 | 93 | 1023.1 |
| 20260830122635 | 73 | 177 | 0.0 | 2.0 | 0.00 | 0.00 | 0.00 | 93 | 1023.2 |
| 20260830122130 | 72 | 74 | 0.0 | 0.0 | 0.00 | 0.00 | 0.00 | 92 | 1023.3 |
| 20260830122111 | 72 | 74 | 0.0 | 1.0 | 0.00 | 0.00 | 0.00 | 92 | 1023.3 |
| 20260830121117 | 71 | 74 | 0.0 | 1.0 | 0.00 | 0.00 | 0.00 | 92 | 1023.3 |
| 20260830120611 | 71 | 57 | 0.0 | 0.0 | 0.00 | 0.00 | 0.00 | 92 | 1023.3 |
| 20260830120334 | 70 | 57 | 0.0 | 0.0 | 0.00 | 0.00 | 0.00 | 92 | 1023.4 |
| 20260830115559 | 70 | 57 | 0.0 | 0.0 | 0.00 | 0.00 | 0.00 | 92 | 1023.3 |
| 20260830115057 | 70 | 57 | 0.0 | 0.0 | 0.00 | 0.00 | 0.00 | 92 | 1023.2 |
| 20260830114550 | 70 | 57 | 0.0 | 0.0 | 0.00 | 0.00 | 0.00 | 92 | 1023.2 |
| 20260830114041 | 69 | 57 | 0.0 | 0.0 | 0.00 | 0.00 | 0.00 | 92 | 1023.2 |
| 20260830113543 | 69 | 57 | 0.0 | 0.0 | 0.00 | 0.00 | 0.00 | 92 | 1023.2 |
| 20260830113030 | 69 | 57 | 0.0 | 0.0 | 0.00 | 0.00 | 0.00 | 92 | 1023.2 |
| 20260830112523 | 69 | 57 | 0.0 | 0.0 | 0.00 | 0.00 | 0.00 | 92 | 1023.1 |
| 20260830112017 | 69 | 57 | 0.0 | 0.0 | 0.00 | 0.00 | 0.00 | 92 | 1023.2 |
| 20260830111513 | 68 | 57 | 0.0 | 0.0 | 0.00 | 0.00 | 0.00 | 92 | 1023.2 |